Location: McDonald Observatory
(30.6717°N, 104.0221°W)
Time: 19:11:41
(UTC-06:00)

Daily predictions for brighter satellites

Satellite Brightness Start Highest point End
(mag) Time Altitude Azimuth Time Altitude Azimuth Time Altitude Azimuth
Sich 1 3.7 18:48:15 10° SSE 18:52:15 34° E 18:56:16 10° NNE
Meteor 1-11 4.5 18:47:32 10° S 18:53:11 79° W 18:58:57 10° N
Cosmos 1356 Rocket 3.6 18:51:00 10° SSE 18:54:48 45° E 18:58:37 10° NNE
Aureole 1 Rocket 4.1 18:51:28 10° SSE 18:56:07 42° E 19:02:10 10° NNE
CZ-2C R/B 3.7 18:51:52 10° S 18:56:40 47° W 19:01:21 10° NNW
Lacrosse 5 rocket 1.2 18:54:33 10° NNW 18:58:21 58° NE 19:02:21 10° SE
ALOS 4.0 18:58:45 10° E 19:00:31 12° ENE 19:02:17 10° NE
Coronas F rocket 2.4 19:00:14 10° SE 19:02:05 20° E 19:03:53 11° NE
Cosmos 1633 Rocket 3.5 18:58:34 10° SSE 19:02:40 40° E 19:06:47 10° NNE
Cosmos 1603 4.2 19:00:41 10° S 19:05:47 37° ESE 19:10:54 10° NE
Cosmos 1726 3.5 19:02:14 10° NNW 19:05:50 43° W 19:09:25 10° SSW
Delta 2 Rocket 3.9 19:04:13 10° SW 19:07:15 31° SSE 19:09:44 13° E
Cosmos 1455 2.8 19:10:25 10° NNE 19:13:55 34° E 19:17:24 10° SSE
Cosmos 1184 Rocket 2.7 19:13:41 10° S 19:17:01 69° E 19:20:20 10° NNE
Cosmos 1703 3.8 19:13:47 10° SSW 19:17:37 60° W 19:21:28 10° N
Cosmos 2278 Rocket 3.2 19:12:58 10° NNW 19:18:29 52° WSW 19:23:56 10° S
CZ-4 R/B 4.5 19:18:13 10° SW 19:20:48 17° W 19:23:26 10° NW
SJ-6B 3.5 19:18:17 10° SE 19:21:58 34° ENE 19:25:43 10° N
Timation 1 Rocket 4.3 19:20:12 10° NNW 19:26:15 86° ENE 19:32:15 10° SSE
USA 229 DEB 3.8 19:19:48 10° SSW 19:26:39 84° WNW 19:33:36 10° NNE
USA 229 3.8 19:19:54 10° SSW 19:26:45 85° WNW 19:33:42 10° NNE
OTV 4 2.9 19:27:03 10° W 19:29:24 21° SW 19:31:44 10° SSE
Iridium 4 Rocket 3.4 19:25:54 10° SSE 19:30:16 45° E 19:34:21 10° NNE
Cosmos 1707 Rocket 3.5 19:29:44 10° N 19:34:04 86° W 19:38:25 10° S
COSMO-SKYMED 1 4.4 19:31:46 10° N 19:35:37 32° WNW 19:39:29 10° SW
FREGAT/IRIS 2.7 19:34:35 10° SSE 19:37:32 49° ENE 19:40:30 10° N
Cosmos 1666 Rocket 4.3 19:34:36 10° SSW 19:38:49 53° W 19:43:06 10° N
NOSS 3-1 (A) 4.1 19:36:03 10° S 19:40:52 29° ESE 19:42:21 26° E
SL-16 R/B 4.0 19:40:09 10° WSW 19:45:00 29° WNW 19:49:53 10° N
Resurs 01 Rocket 2.3 19:44:56 10° SE 19:49:47 33° NE 19:53:04 10° N
Cosmos 1933 Rocket 3.5 19:45:57 10° S 19:50:20 65° E 19:53:46 16° NNE
ORS 1 (USA 231) 4.4 19:47:23 10° WNW 19:50:32 72° NNE 19:50:37 71° NE
Cosmos 923 Rocket 4.1 19:46:43 10° SSW 19:51:55 76° WNW 19:57:07 10° NNE
Cosmos 1680 Rocket 3.4 19:53:06 10° SSW 19:58:18 88° WNW 20:02:29 16° NNE
TIMED 4.4 19:55:54 10° N 20:00:16 67° ENE 20:03:51 15° SSE
Tiangong 1 2.4 19:57:45 10° W 20:00:16 29° NNW 20:00:16 29° NNW
Genesis I 3.1 19:57:57 10° SSW 20:01:50 68° ESE 20:01:52 68° ESE
Lacrosse 4 Rocket 2.1 19:59:05 10° NNW 20:01:45 36° N 20:01:45 36° N
Cosmos 1655 Rocket 4.1 19:58:09 10° SSE 20:04:19 54° E 20:09:16 16° NNE
OAO 1 4.5 20:00:26 10° WSW 20:05:54 77° NNW 20:07:22 49° ENE
Helios 1B rocket 3.5 20:07:51 31° SSE 20:07:51 31° SSE 20:10:13 10° S
Cosmos 1627 Rocket 4.3 20:00:18 10° S 20:06:29 77° E 20:12:37 10° N
Cosmos 1869 3.6 20:04:49 10° NNW 20:08:51 69° W 20:12:50 10° S
FENGYUN 3A 3.5 20:03:48 10° SSE 20:09:06 69° ENE 20:14:27 10° N
Cosmos 1470 Rocket 4.0 20:07:36 10° SSW 20:11:53 59° W 20:15:29 14° N
In-Cosmos 22 Rocket 4.4 20:09:45 10° S 20:13:54 45° SE 20:13:54 45° SE
NOSS 3-1 (C) 3.2 20:12:41 10° SSW 20:18:19 90° WNW 20:20:20 44° NNE
Cosmos 1943 3.0 20:16:56 10° SSW 20:22:35 84° ESE 20:23:49 57° NNE
USA 215 3.3 20:28:14 54° NE 20:28:30 55° NE 20:34:51 10° NNW
CCE 1 Rocket 4.2 20:25:28 10° WSW 20:29:54 65° SSE 20:30:10 64° SSE
Cosmos 2026 Rocket 4.2 20:27:16 10° SSW 20:33:28 70° W 20:39:36 10° N
ALOS 3.0 20:32:55 10° S 20:37:27 51° W 20:42:00 10° NNW
Centaur AC-72 4.3 20:35:58 10° WSW 20:42:11 44° S 20:47:32 31° SE
